Location: Asheville, NC
(35.6000°N, 82.5500°W)
Time: 09:13:23
(UTC-05:00)

AO-7 - Pass Details

Date: 09 January 2018
Orbit: 1440 x 1458 km, 101.7° (Epoch: 20 January)

Event Time Altitude Azimuth Distance (km) Brightness Sun altitude
Rises 04:04:17 0° 17° (NNE) 4,569 ? -43.3°
Reaches altitude 10° 04:07:06 10° 19° (NNE) 3,587 ? -42.7°
Enters shadow 04:11:39 37° 25° (NNE) 2,117 ? -41.8°
